[[{"header":{"parameterUnit":"m.s-1","parameterCategory":2,"la1":30.2991,"la2":30.254,"lo1":-89.0895,"lo2":-89.0444,"dy":0.0017,"dx":0.0017,"nx":28,"ny":28,"refTime":"2024-06-07T09:00:00:Z","depth":"0","parameterNumber":2,"parameterNumberName":"U-component_of_CURRENTS"},"data":[0,0,0,0,0,0,0,0,0,0,0,0,0,0,0,0,0,0,0,0,0,0,0,0,0,0,0,0,0,0,0,0,0,0,0,0,0,0,0,0,0,0,0,0,0,0,0,0,0,0,0,0,0,0,0,0,0,0,0.0987,0.0988,0,0.0995,0.0995,0.0995,0.0969,0.0969,0.0968,0.0968,0.0974,0.0974,0.0975,0,0,0,0,0,0,0,0,0,0,0,0,0,0.093,0.0931,0.0987,0.0988,0.0988,0.0995,0.0995,0.0994,0.097,0.0969,0.0968,0.0968,0.0974,0.0974,0.0975,0,0,0,0,0,0,0,0,0,0,0,0,0,0.0946,0.0931,0.0987,0.0978,0.0977,0.0995,0.0995,0.0994,0.097,0.0969,0.0968,0.0967,0.0973,0.0974,0.0975,0.0998,0,0,0.0978,0.0979,0,0,0,0,0,0,0,0,0.0945,0.0947,0.0979,0.0979,0.0978,0.0982,0.0977,0.0996,0.097,0.097,0.0968,0.0967,0.0979,0.0979,0.0979,0.0998,0.0998,0.0978,0.0979,0.0979,0.098,0,0,0,0,0,0,0,0.0944,0.0947,0.0988,0.0979,0.0979,0.0966,0.0967,0.098,0.0977,0.097,0.0969,0.0974,0.0978,0.0978,0.0979,0.0998,0.0978,0.0979,0.098,0.098,0.1105,0.1107,0,0,0,0,0,0,0.095,0.0946,0.0988,0.0988,0.0962,0.0968,0.0969,0.098,0.0977,0.0976,0.0974,0.0972,0.0977,0.0978,0.0979,0.1051,0.0979,0.098,0.0981,0.1102,0.1105,0.1108,0,0,0,0,0,0,0.0949,0.0954,0.0987,0.0969,0.0972,0.097,0.0982,0.0981,0.0986,0.0981,0.0979,0.0982,0.0976,0.0978,0.1014,0.1049,0.0981,0.0982,0.1099,0.1103,0.1107,0.1166,0,0,0,0,0,0,0.0947,0.0953,0.096,0.0969,0.0974,0.1008,0.0983,0.0981,0.0991,0.0988,0.0987,0.0986,0.0976,0.1013,0.1015,0.1049,0.0983,0.1095,0.1101,0.1106,0.1161,0.1172,0.1181,0,0,0,0,0,0.0945,0.0961,0.0961,0.0966,0.0985,0.101,0.1011,0.1004,0.0992,0.1004,0.1012,0.0986,0.1047,0.1016,0.1018,0.1053,0.1093,0.1099,0.1105,0.1156,0.1169,0.1181,0,0,0,0,0,0,0.0941,0.0961,0.096,0.0982,0.0999,0.1007,0.1017,0.1013,0.1027,0.1028,0.1015,0.1017,0.1061,0.1058,0.1024,0.1109,0.1068,0.1075,0.1106,0.1119,0.1129,0.1121,0.0983,0,0,0,0,0,0.0945,0.0961,0.098,0.0999,0.101,0.1016,0.1023,0.1025,0.1039,0.1043,0.1045,0.1061,0.1089,0.1103,0.112,0.1164,0.1221,0.1194,0.1204,0.1212,0.1212,0.1321,0.1341,0.1128,0.1128,0.1128,0,0,0.0948,0.0962,0.0971,0.0999,0.101,0.1039,0.1018,0.1043,0.1068,0.1044,0.1081,0.1092,0.1109,0.1159,0.118,0.116,0.1321,0.122,0.1227,0.1221,0.133,0.135,0.1368,0.1132,0.1132,0.1131,0,0,0.0966,0.098,0.0999,0.1021,0.1048,0.106,0.1072,0.1092,0.1101,0.1141,0.1139,0.1175,0.1206,0.1231,0.1246,0.1327,0.1367,0.1339,0.1384,0.1492,0.151,0.1526,0.1697,0.1728,0.1347,0.1347,0.1347,0,0.097,0.0997,0.101,0.1038,0.106,0.1074,0.1106,0.1128,0.1157,0.1178,0.1163,0.1239,0.1241,0.1317,0.1341,0.1347,0.144,0.133,0.1504,0.1521,0.1537,0.1708,0.1741,0.1351,0.1351,0.135,0.135,0,0.1004,0.1028,0.1047,0.1088,0.1115,0.1149,0.1183,0.1215,0.1229,0.1248,0.1316,0.1335,0.1385,0.1395,0.1386,0.1502,0.1548,0.1501,0.1468,0.1561,0.1737,0.1771,0.1356,0.1355,0.1354,0.1353,0,0,0.1016,0.1059,0.1068,0.1092,0.1145,0.1174,0.1231,0.1285,0.1339,0.1363,0.1437,0.147,0.1486,0.1506,0.1517,0.159,0.1792,0.1595,0.1599,0.1758,0.2103,0.2158,0.22,0.178,0.1785,0.1788,0.2207,0,0.1042,0.1088,0.111,0.1172,0.1203,0.1242,0.1297,0.1351,0.1401,0.1481,0.151,0.1586,0.1532,0.158,0.1645,0.1748,0.1872,0.1686,0.1994,0.2004,0.2033,0.2236,0.2218,0.259,0.224,0.2246,0.225,0,0.1072,0.11,0.1149,0.1215,0.1236,0.1279,0.1381,0.1434,0.154,0.1583,0.1656,0.1699,0.1821,0.1755,0.2001,0.1894,0.2012,0.2083,0.21,0.2142,0.2119,0.2427,0.2664,0.2613,0.2301,0.2297,0.2293,0,0.107,0.1133,0.1168,0.1192,0.127,0.1309,0.136,0.1461,0.1536,0.1668,0.1759,0.1874,0.199,0.2108,0.2255,0.2161,0.2545,0.2437,0.2616,0.2624,0.2662,0.2665,0.2868,0.2639,0.2638,0.2637,0.2636,0,0.1088,0.112,0.117,0.1195,0.1267,0.1318,0.1423,0.1487,0.1622,0.1744,0.182,0.1966,0.2083,0.2296,0.2374,0.2646,0.267,0.2691,0.2745,0.2691,0.2691,0.2683,0.26,0.2653,0.265,0.2647,0.2644,0,0.1078,0.1104,0.1157,0.1234,0.1264,0.1318,0.1453,0.1539,0.1666,0.1844,0.1904,0.2119,0.2391,0.2545,0.2806,0.2856,0.3015,0.3142,0.3105,0.3144,0.3182,0.3102,0.3234,0.3122,0.3417,0.3421,0.3425,0,0.1068,0.1092,0.1177,0.1217,0.1252,0.1343,0.1415,0.154,0.1648,0.194,0.2036,0.2354,0.2552,0.2991,0.3157,0.3412,0.3229,0.3542,0.3312,0.3254,0.3206,0.2988,0.2863,0.344,0.3444,0.3446,0.3448,0,0.1066,0.1097,0.1144,0.1223,0.1293,0.1377,0.1492,0.158,0.1764,0.1932,0.2191,0.2376,0.2825,0.3086,0.3438,0.356,0.3382,0.3602,0.355,0.327,0.3041,0.2935,0.313,0.3472,0.3469,0.3468,0.3466,0.3465,0.1065,0.11,0.1166,0.1235,0.1311,0.139,0.1451,0.1592,0.1755,0.2,0.2222,0.2503,0.2964,0.3432,0.3528,0.3755,0.3568,0.3715,0.3653,0.346,0.3239,0.3514,0.3871,0.3871,0.3871,0.3871,0.3871,0,0.1074,0.111,0.1175,0.1252,0.1313,0.1361,0.1489,0.1551,0.1703,0.2,0.2219,0.274,0.3094,0.3429,0.3854,0.3837,0.3581,0.377,0.3447,0.3332,0.3654,0.3535,0.3822,0.3823,0.3823,0.3823,0.3823,0.3823,0.1082,0.1137,0.1166,0.1231,0.1281,0.1342,0.1395,0.1487,0.1683,0.2019,0.2336,0.2605,0.3171,0.3757,0.3961,0.3882,0.3537,0.3468,0.3329,0.356,0.3546,0.3533,0.3404,0.3659,0.3659,0.2893,0.2888,0.2884]},{"header":{"parameterUnit":"m.s-1","parameterCategory":2,"la1":30.2991,"la2":30.254,"lo1":-89.0895,"lo2":-89.0444,"dy":0.0017,"dx":0.0017,"nx":28,"ny":28,"refTime":"2024-06-07T09:00:00:Z","depth":"0","parameterNumber":3,"parameterNumberName":"V-component_of_CURRENTS"},"data":[0,0,0,0,0,0,0,0,0,0,0,0,0,0,0,0,0,0,0,0,0,0,0,0,0,0,0,0,0,0,0,0,0,0,0,0,0,0,0,0,0,0,0,0,0,0,0,0,0,0,0,0,0,0,0,0,0,0,-0.0536,-0.0537,0,-0.0552,-0.0551,-0.0551,-0.0506,-0.0505,-0.0504,-0.0503,-0.0433,-0.0432,-0.0431,0,0,0,0,0,0,0,0,0,0,0,0,0,-0.0427,-0.0429,-0.0536,-0.0537,-0.0537,-0.0552,-0.0551,-0.0551,-0.0506,-0.0505,-0.0504,-0.0503,-0.0433,-0.0432,-0.0431,0,0,0,0,0,0,0,0,0,0,0,0,0,-0.0457,-0.043,-0.0536,-0.052,-0.0519,-0.0552,-0.0551,-0.0551,-0.0506,-0.0505,-0.0504,-0.0502,-0.0433,-0.0432,-0.0431,-0.045,0,0,-0.0426,-0.0425,0,0,0,0,0,0,0,0,-0.0456,-0.0461,-0.0522,-0.0521,-0.052,-0.053,-0.0487,-0.0515,-0.0507,-0.0506,-0.0503,-0.0502,-0.0461,-0.0457,-0.0458,-0.0447,-0.0444,-0.0426,-0.0425,-0.0424,-0.0424,0,0,0,0,0,0,0,-0.0454,-0.046,-0.0538,-0.0523,-0.0522,-0.0499,-0.0501,-0.0492,-0.0486,-0.0506,-0.0504,-0.0514,-0.0459,-0.046,-0.0456,-0.0443,-0.0426,-0.0425,-0.0424,-0.0423,-0.0487,-0.0489,0,0,0,0,0,0,-0.0466,-0.0458,-0.0537,-0.0538,-0.0489,-0.0502,-0.0505,-0.0524,-0.0488,-0.0484,-0.0515,-0.0512,-0.0463,-0.0458,-0.0453,-0.05,-0.0424,-0.0423,-0.0422,-0.0484,-0.0487,-0.049,0,0,0,0,0,0,-0.0463,-0.0473,-0.0537,-0.0501,-0.0508,-0.0506,-0.0528,-0.0525,-0.0531,-0.0497,-0.0489,-0.0525,-0.0462,-0.0455,-0.0463,-0.0495,-0.0422,-0.0421,-0.0481,-0.0485,-0.0489,-0.0576,0,0,0,0,0,0,-0.046,-0.0472,-0.0488,-0.0503,-0.0511,-0.0568,-0.053,-0.0527,-0.0542,-0.0537,-0.0503,-0.0494,-0.046,-0.0466,-0.0462,-0.0492,-0.042,-0.0478,-0.0483,-0.0487,-0.057,-0.0582,-0.0593,0,0,0,0,0,-0.0456,-0.0487,-0.0489,-0.0498,-0.0534,-0.057,-0.0572,-0.0561,-0.0544,-0.0558,-0.0539,-0.0496,-0.0493,-0.0467,-0.0461,-0.0492,-0.0475,-0.0481,-0.0487,-0.0565,-0.058,-0.0593,0,0,0,0,0,0,-0.0443,-0.0487,-0.0488,-0.0529,-0.0554,-0.0564,-0.0581,-0.0575,-0.0573,-0.0567,-0.0523,-0.0515,-0.0535,-0.0511,-0.0483,-0.0529,-0.048,-0.0485,-0.0541,-0.0555,-0.0567,-0.0521,-0.0419,0,0,0,0,0,-0.0453,-0.0489,-0.052,-0.0554,-0.0571,-0.0579,-0.0592,-0.0591,-0.0595,-0.0592,-0.0569,-0.0556,-0.0557,-0.0553,-0.0546,-0.0569,-0.0501,-0.059,-0.0602,-0.0612,-0.0575,-0.053,-0.0533,-0.0509,-0.0509,-0.0509,0,0,-0.0461,-0.0486,-0.0509,-0.0554,-0.0571,-0.0602,-0.0582,-0.0617,-0.0631,-0.0586,-0.0596,-0.0593,-0.0574,-0.0599,-0.0607,-0.058,-0.0587,-0.0619,-0.0627,-0.0583,-0.0536,-0.0538,-0.0539,-0.0513,-0.0512,-0.0512,0,0,-0.0491,-0.0519,-0.0556,-0.0582,-0.0621,-0.0629,-0.0645,-0.0669,-0.0668,-0.0692,-0.0666,-0.068,-0.0678,-0.067,-0.0666,-0.074,-0.065,-0.0755,-0.0771,-0.0731,-0.0731,-0.073,-0.0649,-0.064,-0.076,-0.0761,-0.0761,0,-0.0486,-0.0542,-0.0572,-0.0608,-0.0623,-0.0645,-0.0675,-0.0692,-0.071,-0.0696,-0.0705,-0.0698,-0.0706,-0.0707,-0.0749,-0.0761,-0.0704,-0.0718,-0.0741,-0.0738,-0.0736,-0.0653,-0.0642,-0.0765,-0.0765,-0.0764,-0.0764,0,-0.0547,-0.0582,-0.0609,-0.0657,-0.0679,-0.0716,-0.0742,-0.0756,-0.076,-0.0756,-0.076,-0.0775,-0.0745,-0.0794,-0.0797,-0.0798,-0.0751,-0.0759,-0.0694,-0.0742,-0.0654,-0.0641,-0.0773,-0.0771,-0.0769,-0.0768,0,0,-0.0547,-0.063,-0.0637,-0.0641,-0.0704,-0.0713,-0.0753,-0.0764,-0.0722,-0.0781,-0.0718,-0.0806,-0.078,-0.0775,-0.0789,-0.0792,-0.0765,-0.0776,-0.0772,-0.0673,-0.0633,-0.0585,-0.0565,-0.0773,-0.0771,-0.077,-0.0578,0,-0.0573,-0.0629,-0.0671,-0.07,-0.0722,-0.0742,-0.0743,-0.0751,-0.0742,-0.0687,-0.0725,-0.0673,-0.0783,-0.074,-0.0779,-0.0726,-0.0732,-0.0812,-0.0617,-0.061,-0.0544,-0.055,-0.0573,-0.0403,-0.0564,-0.0562,-0.056,0,-0.0612,-0.0636,-0.0675,-0.0671,-0.0676,-0.0681,-0.0635,-0.0637,-0.0595,-0.057,-0.0562,-0.0546,-0.0542,-0.0623,-0.0595,-0.0632,-0.0646,-0.0643,-0.0635,-0.0537,-0.0537,-0.0382,-0.0371,-0.0618,-0.0539,-0.054,-0.0542,0,-0.057,-0.0624,-0.0639,-0.0652,-0.0666,-0.0644,-0.0624,-0.0587,-0.0508,-0.045,-0.0343,-0.0384,-0.0289,-0.0363,-0.0385,-0.0468,-0.0315,-0.0417,-0.0395,-0.039,-0.0338,-0.0331,-0.0517,-0.0413,-0.0414,-0.0414,-0.0415,0,-0.0571,-0.0573,-0.0604,-0.0605,-0.0539,-0.0571,-0.0453,-0.0437,-0.0327,-0.016,-0.0244,-0.0085,-0.0216,-0.0154,-0.0273,-0.0242,-0.0219,-0.0361,-0.0335,-0.0373,-0.0372,-0.0526,-0.065,-0.0407,-0.0409,-0.041,-0.0411,0,-0.0519,-0.0566,-0.0547,-0.0542,-0.0517,-0.045,-0.0307,-0.0191,-0.0125,0.0107,0.0157,0.0218,0.0299,0.0176,0.0151,-0.0006,-0.0149,-0.0053,-0.0067,-0.0049,-0.0324,-0.0449,-0.0448,-0.0591,-0.0008,-0.0006,-0.0004,0,-0.0501,-0.0498,-0.0459,-0.0393,-0.0376,-0.0271,-0.0156,-0.0083,0.0076,0.0326,0.0482,0.0607,0.0743,0.0713,0.0449,0.0292,0.002,0.0146,-0.0066,-0.0312,-0.0433,-0.0516,-0.0648,-0.0029,-0.0027,-0.0026,-0.0025,0,-0.0419,-0.0403,-0.0364,-0.0235,-0.012,0.0024,0.0194,0.0353,0.0509,0.0703,0.1013,0.1139,0.1096,0.0941,0.068,0.0513,-0.0045,0.0169,-0.0093,-0.0457,-0.0546,-0.0679,-0.0162,-0.0013,-0.0014,-0.0015,-0.0016,-0.0016,-0.0304,-0.0233,-0.0155,-0.002,0.0113,0.0338,0.0531,0.0733,0.1013,0.1355,0.1416,0.1657,0.1341,0.0977,0.0676,0.0094,0.0067,-0.0143,-0.026,-0.0311,-0.0513,0.0054,0.0221,0.0222,0.0222,0.0222,0.0222,0,-0.0099,-0.0035,0.0076,0.0267,0.0469,0.049,0.0797,0.1029,0.14,0.1649,0.1905,0.1934,0.1447,0.0933,0.016,-0.0288,-0.0523,-0.0531,-0.0734,-0.0847,-0.034,-0.0416,-0.0372,-0.0372,-0.0372,-0.0371,-0.0371,-0.0371,0.003,0.0193,0.0238,0.0574,0.0716,0.1058,0.1262,0.1557,0.1798,0.2178,0.2353,0.2441,0.2132,0.0614,-0.0459,-0.0746,-0.1165,-0.1148,-0.1358,-0.1118,-0.1095,-0.1074,-0.1183,-0.1299,-0.13,-0.1876,-0.1882,-0.1886]}],[{"header":{"parameterUnit":"m.s-1","parameterCategory":2,"la1":30.2991,"la2":30.254,"lo1":-89.0895,"lo2":-89.0444,"dy":0.0017,"dx":0.0017,"nx":28,"ny":28,"refTime":"2024-06-07T09:00:00:Z","depth":"2","parameterNumber":2,"parameterNumberName":"U-component_of_CURRENTS"},"data":[0,0,0,0,0,0,0,0,0,0,0,0,0,0,0,0,0,0,0,0,0,0,0,0,0,0,0,0,0,0,0,0,0,0,0,0,0,0,0,0,0,0,0,0,0,0,0,0,0,0,0,0,0,0,0,0,0,0,0.0974,0.0975,0,0.0986,0.0986,0.0986,0.0967,0.0966,0.0966,0.0965,0.0926,0.0926,0.0925,0,0,0,0,0,0,0,0,0,0,0,0,0,0.0942,0.0942,0.0974,0.0975,0.0975,0.0986,0.0986,0.0986,0.0967,0.0966,0.0966,0.0965,0.0927,0.0926,0.0925,0,0,0,0,0,0,0,0,0,0,0,0,0,0.0955,0.0943,0.0974,0.0967,0.0966,0.0986,0.0986,0.0986,0.0967,0.0966,0.0966,0.0965,0.0927,0.0926,0.0925,0.094,0,0,0.0923,0.0923,0,0,0,0,0,0,0,0,0.0954,0.0956,0.0968,0.0967,0.0967,0.0974,0.096,0.0968,0.0968,0.0967,0.0965,0.0964,0.0938,0.0937,0.0942,0.0938,0.0937,0.0923,0.0923,0.0923,0.0922,0,0,0,0,0,0,0,0.0953,0.0955,0.0979,0.0968,0.0967,0.0964,0.0965,0.0962,0.0957,0.0967,0.0966,0.0967,0.0938,0.0942,0.094,0.0936,0.0923,0.0923,0.0922,0.0922,0.1002,0.1004,0,0,0,0,0,0,0.0953,0.0955,0.0978,0.0979,0.0958,0.0966,0.0967,0.0973,0.0958,0.0955,0.0968,0.0966,0.0944,0.0941,0.0939,0.1002,0.0923,0.0922,0.0922,0.0999,0.1002,0.1005,0,0,0,0,0,0,0.0952,0.0955,0.0978,0.0967,0.0969,0.0967,0.0974,0.0973,0.0981,0.0959,0.0955,0.0977,0.0943,0.094,0.0964,0.0998,0.0922,0.0921,0.0996,0.1,0.1004,0.1097,0,0,0,0,0,0,0.0951,0.0955,0.0963,0.0967,0.097,0.1001,0.0975,0.0974,0.0983,0.0981,0.0966,0.0961,0.0942,0.0965,0.0963,0.0995,0.0921,0.0993,0.0998,0.1003,0.1091,0.1103,0.1114,0,0,0,0,0,0.095,0.0969,0.0964,0.0967,0.098,0.1002,0.1004,0.0999,0.0985,0.0999,0.1,0.0961,0.0993,0.0967,0.0964,0.0997,0.0991,0.0997,0.1002,0.1085,0.1101,0.1114,0,0,0,0,0,0,0.0961,0.0969,0.0963,0.0983,0.0995,0.0999,0.1014,0.1006,0.1019,0.1018,0.0992,0.0989,0.1022,0.1003,0.0975,0.1037,0.0987,0.0992,0.1051,0.1065,0.1077,0.1064,0.092,0,0,0,0,0,0.0967,0.0983,0.0989,0.1007,0.1015,0.1015,0.1023,0.1022,0.103,0.1034,0.1026,0.1028,0.1045,0.1049,0.1054,0.1086,0.1116,0.1108,0.112,0.113,0.1121,0.1209,0.1228,0.1024,0.1024,0.1024,0,0,0.0976,0.0983,0.0992,0.1011,0.1019,0.1046,0.1018,0.104,0.1064,0.1028,0.1064,0.1066,0.1063,0.1105,0.1118,0.1092,0.1218,0.1137,0.1146,0.113,0.1217,0.1236,0.1254,0.1028,0.1027,0.1026,0,0,0.1007,0.1011,0.1035,0.1051,0.1068,0.1074,0.1083,0.1096,0.1103,0.1139,0.1128,0.1153,0.1168,0.1181,0.1187,0.1268,0.1277,0.1274,0.1322,0.1409,0.1426,0.1441,0.1564,0.1589,0.1281,0.1281,0.1281,0,0.1016,0.1045,0.1047,0.1077,0.1091,0.1091,0.112,0.114,0.116,0.1174,0.1161,0.1213,0.1204,0.1263,0.1292,0.1291,0.1358,0.1266,0.1425,0.144,0.1454,0.1575,0.1601,0.1286,0.1286,0.1285,0.1285,0,0.1065,0.1089,0.1109,0.1144,0.1163,0.1191,0.1211,0.1236,0.1242,0.1256,0.1309,0.1318,0.1349,0.1359,0.1345,0.1442,0.1468,0.143,0.1386,0.148,0.1602,0.1629,0.1294,0.1292,0.129,0.1289,0,0,0.1076,0.1131,0.1136,0.1152,0.1196,0.121,0.1265,0.1304,0.1347,0.1368,0.1433,0.1453,0.1458,0.1467,0.1469,0.1529,0.1699,0.1526,0.1528,0.1644,0.1943,0.1879,0.1901,0.1701,0.1704,0.1707,0.201,0,0.1109,0.116,0.1188,0.1238,0.1259,0.1283,0.1333,0.137,0.1412,0.1484,0.1499,0.1568,0.1505,0.1548,0.1596,0.1676,0.1763,0.1623,0.1835,0.1842,0.1769,0.1926,0.1748,0.1993,0.2036,0.204,0.2043,0,0.1138,0.1166,0.1212,0.1265,0.1279,0.1316,0.1384,0.1436,0.1532,0.1573,0.1635,0.1674,0.1774,0.171,0.1887,0.1811,0.1883,0.1932,0.1944,0.1855,0.1823,0.1895,0.2039,0.2086,0.2083,0.2079,0.2077,0,0.1107,0.1178,0.1206,0.1225,0.1293,0.1321,0.1367,0.1453,0.1529,0.1655,0.1747,0.1834,0.1929,0.201,0.2092,0.2029,0.2298,0.2228,0.2243,0.2242,0.2111,0.209,0.2363,0.2363,0.2362,0.2361,0.236,0,0.1116,0.1134,0.1193,0.1205,0.1263,0.1307,0.1404,0.1462,0.1603,0.1718,0.1798,0.1923,0.2009,0.2157,0.2195,0.2318,0.2395,0.229,0.2318,0.2144,0.2124,0.2185,0.2161,0.2373,0.237,0.2368,0.2366,0,0.1073,0.111,0.1147,0.1217,0.1247,0.1285,0.1438,0.1523,0.1647,0.1818,0.1882,0.2064,0.2253,0.2345,0.2521,0.2471,0.2579,0.2596,0.24,0.2395,0.2451,0.2428,0.2678,0.2678,0.2679,0.2679,0.2679,0,0.1053,0.1064,0.1144,0.1195,0.1232,0.1317,0.1396,0.1526,0.1631,0.1893,0.1978,0.2226,0.2351,0.2595,0.2602,0.2711,0.2696,0.2568,0.2367,0.2483,0.2487,0.2463,0.244,0.2283,0.228,0.2278,0.2276,0,0.1026,0.1052,0.1098,0.1196,0.1275,0.1372,0.1486,0.1577,0.1745,0.1903,0.2122,0.2254,0.2463,0.2487,0.2588,0.2589,0.2523,0.2517,0.2752,0.2187,0.2122,0.212,0.211,0.2253,0.2256,0.2257,0.2258,0.2259,0.1016,0.1051,0.1129,0.1216,0.1307,0.1408,0.1489,0.1618,0.178,0.1953,0.2094,0.2212,0.2295,0.2357,0.2352,0.2341,0.2472,0.2343,0.2347,0.2355,0.221,0.2144,0.2258,0.226,0.2262,0.2264,0.2265,0,0.1028,0.1083,0.1161,0.1267,0.135,0.1402,0.1544,0.1585,0.1733,0.1879,0.2004,0.1918,0.197,0.207,0.2029,0.2031,0.1957,0.195,0.1847,0.1874,0.1896,0.1721,0.1644,0.1642,0.164,0.1638,0,0,0.1048,0.1119,0.1154,0.1276,0.1352,0.145,0.152,0.156,0.1645,0.1684,0.1738,0.1849,0.2002,0.1788,0.1793,0.1725,0.1767,0.1654,0.2162,0.2068,0.2087,0.2148,0.1912,0,0,0,0,0]},{"header":{"parameterUnit":"m.s-1","parameterCategory":2,"la1":30.2991,"la2":30.254,"lo1":-89.0895,"lo2":-89.0444,"dy":0.0017,"dx":0.0017,"nx":28,"ny":28,"refTime":"2024-06-07T09:00:00:Z","depth":"2","parameterNumber":3,"parameterNumberName":"V-component_of_CURRENTS"},"data":[0,0,0,0,0,0,0,0,0,0,0,0,0,0,0,0,0,0,0,0,0,0,0,0,0,0,0,0,0,0,0,0,0,0,0,0,0,0,0,0,0,0,0,0,0,0,0,0,0,0,0,0,0,0,0,0,0,0,-0.0616,-0.0616,0,-0.0647,-0.0647,-0.0647,-0.0631,-0.063,-0.063,-0.0629,-0.0613,-0.0613,-0.0613,0,0,0,0,0,0,0,0,0,0,0,0,0,-0.0528,-0.053,-0.0616,-0.0616,-0.0617,-0.0647,-0.0647,-0.0647,-0.0631,-0.063,-0.063,-0.0629,-0.0612,-0.0613,-0.0613,0,0,0,0,0,0,0,0,0,0,0,0,0,-0.0561,-0.053,-0.0616,-0.0614,-0.0614,-0.0647,-0.0647,-0.0647,-0.0631,-0.063,-0.0629,-0.0628,-0.0612,-0.0613,-0.0613,-0.0633,0,0,-0.0614,-0.0614,0,0,0,0,0,0,0,0,-0.056,-0.0564,-0.0614,-0.0614,-0.0615,-0.0636,-0.061,-0.0641,-0.0631,-0.0623,-0.0629,-0.0628,-0.0618,-0.0618,-0.0623,-0.0632,-0.0632,-0.0614,-0.0614,-0.0614,-0.0614,0,0,0,0,0,0,0,-0.0557,-0.0563,-0.0626,-0.0615,-0.0615,-0.0607,-0.0611,-0.0616,-0.0623,-0.0623,-0.0623,-0.063,-0.0618,-0.0623,-0.0623,-0.0631,-0.0614,-0.0614,-0.0614,-0.0614,-0.0649,-0.0649,0,0,0,0,0,0,-0.056,-0.0561,-0.0625,-0.0627,-0.0587,-0.061,-0.0614,-0.0628,-0.0624,-0.0623,-0.0631,-0.0629,-0.0623,-0.0622,-0.0622,-0.0644,-0.0614,-0.0614,-0.0614,-0.0648,-0.0649,-0.065,0,0,0,0,0,0,-0.0558,-0.0566,-0.0624,-0.0596,-0.0603,-0.0613,-0.0629,-0.0629,-0.0639,-0.063,-0.0628,-0.064,-0.0622,-0.0622,-0.0627,-0.0643,-0.0614,-0.0614,-0.0647,-0.0648,-0.0649,-0.0688,0,0,0,0,0,0,-0.0556,-0.0565,-0.058,-0.0596,-0.0605,-0.0642,-0.063,-0.0631,-0.0646,-0.0644,-0.0638,-0.0635,-0.0622,-0.0627,-0.0627,-0.0642,-0.0614,-0.0646,-0.0647,-0.0649,-0.0685,-0.069,-0.0694,0,0,0,0,0,-0.0553,-0.057,-0.058,-0.0588,-0.0624,-0.0642,-0.0646,-0.0647,-0.0647,-0.0652,-0.0648,-0.0636,-0.0636,-0.0627,-0.0628,-0.0644,-0.0645,-0.0647,-0.0649,-0.0684,-0.0689,-0.0694,0,0,0,0,0,0,-0.0533,-0.0571,-0.0582,-0.061,-0.0627,-0.064,-0.065,-0.0656,-0.066,-0.0661,-0.0647,-0.0644,-0.0654,-0.0646,-0.0637,-0.0658,-0.0639,-0.0641,-0.0665,-0.067,-0.0675,-0.0659,-0.0615,0,0,0,0,0,-0.0541,-0.0569,-0.0594,-0.0617,-0.0628,-0.0644,-0.0655,-0.0661,-0.0667,-0.0668,-0.0666,-0.0664,-0.0664,-0.0664,-0.0663,-0.0677,-0.0662,-0.0688,-0.0692,-0.0696,-0.0683,-0.0684,-0.0687,-0.0655,-0.0655,-0.0655,0,0,-0.0542,-0.0566,-0.0582,-0.0616,-0.0631,-0.064,-0.0647,-0.067,-0.0672,-0.0667,-0.0672,-0.0681,-0.0671,-0.0683,-0.0687,-0.0677,-0.0698,-0.0698,-0.0701,-0.0686,-0.0686,-0.0689,-0.0691,-0.0657,-0.0656,-0.0656,0,0,-0.0546,-0.0579,-0.0597,-0.0611,-0.064,-0.0651,-0.066,-0.0683,-0.0688,-0.0704,-0.0698,-0.0714,-0.0718,-0.0714,-0.0711,-0.074,-0.0722,-0.0748,-0.0756,-0.0757,-0.0759,-0.0761,-0.0752,-0.0753,-0.0749,-0.0749,-0.0749,0,-0.0538,-0.0568,-0.0603,-0.0613,-0.062,-0.0654,-0.0658,-0.0673,-0.0693,-0.0694,-0.0707,-0.0718,-0.0728,-0.0723,-0.0744,-0.0749,-0.0743,-0.0738,-0.0762,-0.0763,-0.0764,-0.0755,-0.0755,-0.0751,-0.0751,-0.0751,-0.075,0,-0.0551,-0.0568,-0.0579,-0.0604,-0.0617,-0.0631,-0.0653,-0.0672,-0.0692,-0.07,-0.0715,-0.0735,-0.0733,-0.0755,-0.0764,-0.0778,-0.0769,-0.0769,-0.0747,-0.077,-0.0758,-0.0758,-0.0754,-0.0753,-0.0753,-0.0752,0,0,-0.0539,-0.0578,-0.058,-0.0578,-0.0612,-0.0618,-0.0636,-0.0649,-0.0635,-0.0686,-0.0663,-0.0719,-0.0734,-0.0733,-0.0751,-0.0772,-0.0799,-0.0783,-0.0783,-0.0771,-0.0796,-0.0819,-0.082,-0.0807,-0.0807,-0.0807,-0.0787,0,-0.053,-0.054,-0.0567,-0.0564,-0.0564,-0.0595,-0.0592,-0.061,-0.0624,-0.0612,-0.0656,-0.0637,-0.0721,-0.071,-0.0759,-0.076,-0.0798,-0.0804,-0.0778,-0.0777,-0.0792,-0.0821,-0.0758,-0.0738,-0.0786,-0.0786,-0.0786,0,-0.0528,-0.0531,-0.0532,-0.0525,-0.0527,-0.0529,-0.0522,-0.0522,-0.0525,-0.0526,-0.0549,-0.0561,-0.059,-0.0653,-0.0712,-0.0711,-0.0772,-0.0796,-0.0796,-0.0798,-0.0799,-0.0722,-0.0734,-0.0785,-0.0785,-0.0785,-0.0785,0,-0.0493,-0.0501,-0.0498,-0.05,-0.0504,-0.0502,-0.0498,-0.0498,-0.045,-0.045,-0.0395,-0.0467,-0.044,-0.0542,-0.0637,-0.0663,-0.0691,-0.072,-0.0804,-0.0805,-0.0735,-0.073,-0.0786,-0.0786,-0.0786,-0.0786,-0.0786,0,-0.0467,-0.0459,-0.0479,-0.0472,-0.0431,-0.0456,-0.0395,-0.04,-0.0347,-0.0262,-0.0334,-0.0275,-0.0412,-0.045,-0.0584,-0.0684,-0.0654,-0.0804,-0.0805,-0.0749,-0.0746,-0.077,-0.0769,-0.0785,-0.0786,-0.0786,-0.0786,0,-0.0422,-0.0447,-0.0424,-0.0425,-0.0413,-0.0379,-0.0292,-0.0226,-0.0203,-0.0084,-0.0061,-0.0089,-0.0159,-0.0305,-0.0434,-0.057,-0.0682,-0.0739,-0.0665,-0.0661,-0.081,-0.081,-0.0812,-0.0813,-0.0814,-0.0814,-0.0814,0,-0.0398,-0.0391,-0.0371,-0.0322,-0.0316,-0.0255,-0.0186,-0.0153,-0.0068,0.0029,0.0103,0.0076,0.004,-0.0159,-0.0386,-0.0599,-0.0669,-0.069,-0.0755,-0.0813,-0.0814,-0.0814,-0.0814,-0.0669,-0.0669,-0.0668,-0.0667,0,-0.0328,-0.0334,-0.0303,-0.0211,-0.0143,-0.005,0.0037,0.0119,0.0177,0.0251,0.032,0.0302,0.0128,-0.0074,-0.0361,-0.0512,-0.0655,-0.0687,-0.0734,-0.069,-0.0682,-0.0682,-0.0686,-0.0662,-0.0662,-0.0663,-0.0663,-0.0663,-0.0257,-0.0208,-0.0162,-0.0074,0.0019,0.0133,0.0204,0.0288,0.0389,0.0485,0.046,0.0455,0.0243,-0.0108,-0.0352,-0.0598,-0.0631,-0.0719,-0.0719,-0.072,-0.0725,-0.0721,-0.0707,-0.0708,-0.0708,-0.0709,-0.0709,0,-0.0139,-0.0091,-0.0008,0.0093,0.0201,0.0228,0.0352,0.0398,0.0475,0.0577,0.0597,0.0448,0.0234,-0.0008,-0.0357,-0.0601,-0.061,-0.0673,-0.0626,-0.063,-0.0634,-0.0633,-0.0591,-0.0591,-0.0592,-0.0592,0,0,-0.0064,0.0034,0.006,0.023,0.0311,0.0436,0.0494,0.0524,0.0584,0.0643,0.0679,0.0652,0.0359,0.0132,-0.0188,-0.0382,-0.0452,-0.042,-0.0489,-0.0399,-0.0399,-0.0634,-0.0636,0,0,0,0,0]}],[{"header":{"parameterUnit":"m.s-1","parameterCategory":2,"la1":30.2991,"la2":30.254,"lo1":-89.0895,"lo2":-89.0444,"dy":0.0017,"dx":0.0017,"nx":28,"ny":28,"refTime":"2024-06-07T09:00:00:Z","depth":"4","parameterNumber":2,"parameterNumberName":"U-component_of_CURRENTS"},"data":[0,0,0,0,0,0,0,0,0,0,0,0,0,0,0,0,0,0,0,0,0,0,0,0,0,0,0,0,0,0,0,0,0,0,0,0,0,0,0,0,0,0,0,0,0,0,0,0,0,0,0,0,0,0,0,0,0,0,0.0674,0.0674,0,0.0675,0.0675,0.0675,0.0697,0.0698,0.0699,0.0699,0.0743,0.0743,0.0744,0,0,0,0,0,0,0,0,0,0,0,0,0,0.0647,0.0647,0.0674,0.0674,0.0674,0.0675,0.0675,0.0675,0.0697,0.0698,0.0699,0.0699,0.0742,0.0743,0.0744,0,0,0,0,0,0,0,0,0,0,0,0,0,0.0653,0.0647,0.0674,0.0686,0.0687,0.0675,0.0675,0.0675,0.0697,0.0698,0.0699,0.07,0.0742,0.0743,0.0744,0.0728,0,0,0.0746,0.0747,0,0,0,0,0,0,0,0,0.0653,0.0654,0.0684,0.0685,0.0687,0.0688,0.0681,0.0695,0.0697,0.0692,0.0699,0.07,0.0728,0.073,0.0726,0.073,0.0732,0.0746,0.0747,0.0747,0.0747,0,0,0,0,0,0,0,0.0652,0.0654,0.0673,0.0684,0.0686,0.0677,0.0679,0.0684,0.0704,0.0692,0.0694,0.0696,0.0729,0.0725,0.0727,0.0733,0.0746,0.0747,0.0747,0.0748,0.0811,0.0812,0,0,0,0,0,0,0.0656,0.0654,0.0673,0.0673,0.0673,0.0676,0.0679,0.0686,0.0703,0.0707,0.0695,0.0697,0.0723,0.0726,0.0729,0.0813,0.0747,0.0748,0.0748,0.081,0.0811,0.0813,0,0,0,0,0,0,0.0655,0.0658,0.0673,0.0664,0.0666,0.0676,0.0683,0.0685,0.0708,0.0705,0.071,0.0719,0.0724,0.0728,0.0746,0.0811,0.0748,0.0749,0.0808,0.081,0.0812,0.0916,0,0,0,0,0,0,0.0655,0.0658,0.0672,0.0664,0.0666,0.0687,0.0682,0.0684,0.0706,0.0709,0.0727,0.073,0.0725,0.0744,0.0746,0.0811,0.075,0.0807,0.0809,0.0811,0.0911,0.0921,0.093,0,0,0,0,0,0.0654,0.0669,0.0672,0.0675,0.0683,0.0688,0.0688,0.0697,0.0707,0.0721,0.0725,0.0731,0.0761,0.0745,0.0747,0.0814,0.0806,0.0809,0.0811,0.0907,0.0919,0.093,0,0,0,0,0,0,0.0664,0.0673,0.0676,0.0694,0.07,0.0693,0.0709,0.0712,0.0725,0.0739,0.0732,0.0736,0.0782,0.0769,0.0752,0.0836,0.0791,0.0794,0.0863,0.0875,0.0884,0.095,0.075,0,0,0,0,0,0.0672,0.0689,0.069,0.0706,0.0715,0.0716,0.0723,0.0732,0.0737,0.0745,0.0757,0.0771,0.0789,0.0808,0.0815,0.0852,0.0854,0.0898,0.0908,0.0916,0.097,0.0999,0.1017,0.0821,0.0821,0.0821,0,0,0.0681,0.0687,0.0698,0.071,0.0718,0.0731,0.0724,0.0749,0.0777,0.0748,0.0798,0.0803,0.0802,0.0848,0.087,0.0852,0.0965,0.092,0.0927,0.0978,0.1004,0.1023,0.1041,0.0823,0.0823,0.0823,0,0,0.0698,0.0715,0.0733,0.0743,0.0762,0.0762,0.0776,0.0791,0.0823,0.086,0.0851,0.0891,0.0915,0.0934,0.0944,0.1006,0.1008,0.1015,0.1131,0.1157,0.1175,0.119,0.119,0.1205,0.1028,0.1028,0.1028,0,0.0704,0.0724,0.0739,0.0756,0.0767,0.078,0.0799,0.0831,0.0854,0.0881,0.0897,0.095,0.0964,0.1014,0.1071,0.1035,0.1046,0.1089,0.1173,0.1189,0.1203,0.1199,0.1214,0.1033,0.1033,0.1032,0.1031,0,0.0726,0.075,0.0764,0.0788,0.0807,0.0826,0.0864,0.0907,0.095,0.0971,0.1049,0.1071,0.1106,0.1128,0.1146,0.1252,0.1223,0.1175,0.1152,0.123,0.1219,0.1233,0.1041,0.1039,0.1037,0.1036,0,0,0.0704,0.0765,0.0769,0.0796,0.0825,0.0846,0.0908,0.0955,0.101,0.1071,0.114,0.1226,0.1252,0.1269,0.128,0.1357,0.1476,0.1356,0.1355,0.1371,0.154,0.1431,0.1435,0.1455,0.1459,0.1461,0.1482,0,0.0708,0.0751,0.0778,0.0825,0.0851,0.0892,0.0945,0.1001,0.1065,0.114,0.1202,0.1274,0.1294,0.135,0.1422,0.1465,0.1525,0.1476,0.1452,0.1452,0.1358,0.1452,0.1473,0.1493,0.1496,0.1498,0.15,0,0.0703,0.0737,0.0783,0.0858,0.0875,0.0914,0.1004,0.106,0.1157,0.122,0.1297,0.1338,0.1465,0.1474,0.1588,0.1563,0.1595,0.1622,0.162,0.1509,0.1372,0.1403,0.1524,0.1522,0.152,0.1519,0.1517,0,0.0671,0.0738,0.0779,0.08,0.0883,0.0937,0.0994,0.1085,0.1144,0.1288,0.1343,0.1444,0.1516,0.1591,0.1652,0.1652,0.1757,0.1712,0.1622,0.1611,0.1654,0.1637,0.1804,0.1804,0.1804,0.1804,0.1804,0,0.0646,0.0684,0.0783,0.0807,0.0879,0.0949,0.1037,0.1119,0.1221,0.1292,0.1391,0.1463,0.1572,0.162,0.1673,0.1683,0.1741,0.169,0.1634,0.1688,0.1676,0.1661,0.1644,0.1805,0.1805,0.1804,0.1804,0,0.0601,0.0656,0.0717,0.0825,0.0866,0.093,0.1053,0.1117,0.1227,0.1329,0.1386,0.15,0.1597,0.163,0.1735,0.1681,0.1714,0.1688,0.1741,0.1678,0.155,0.1539,0.1625,0.1622,0.1619,0.1617,0.1615,0,0.0582,0.0606,0.0723,0.0772,0.0831,0.0932,0.0995,0.1116,0.1181,0.1342,0.1383,0.1506,0.1575,0.1593,0.166,0.1682,0.1667,0.1635,0.1649,0.1608,0.1545,0.1537,0.1528,0.1611,0.161,0.161,0.1609,0,0.0545,0.059,0.0648,0.0746,0.0829,0.0902,0.1012,0.1042,0.1186,0.1279,0.1379,0.1436,0.1509,0.1569,0.1562,0.1585,0.1643,0.1608,0.1614,0.1628,0.1592,0.1529,0.1525,0.16,0.1601,0.1602,0.1603,0,0.0522,0.0556,0.064,0.0726,0.0813,0.0873,0.0926,0.1019,0.1087,0.1256,0.129,0.1415,0.1514,0.1518,0.1531,0.1525,0.1535,0.1482,0.1496,0.1506,0.1458,0.1394,0.1336,0,0,0,0,0,0.0501,0.0547,0.062,0.0715,0.0793,0.0846,0.0941,0.099,0.1109,0.1155,0.1222,0.1303,0.1364,0.1419,0.1397,0.1482,0.1524,0.1448,0.1466,0.1549,0.156,0.1515,0,0,0,0,0,0,0.0494,0.0559,0.0606,0.0685,0.0743,0.0823,0.0875,0.0949,0.0977,0.11,0.114,0.1231,0.1302,0.1377,0.1381,0.1393,0.1378,0.1518,0.1514,0.1544,0.1553,0.1562,0.1519,0,0,0,0,0]},{"header":{"parameterUnit":"m.s-1","parameterCategory":2,"la1":30.2991,"la2":30.254,"lo1":-89.0895,"lo2":-89.0444,"dy":0.0017,"dx":0.0017,"nx":28,"ny":28,"refTime":"2024-06-07T09:00:00:Z","depth":"4","parameterNumber":3,"parameterNumberName":"V-component_of_CURRENTS"},"data":[0,0,0,0,0,0,0,0,0,0,0,0,0,0,0,0,0,0,0,0,0,0,0,0,0,0,0,0,0,0,0,0,0,0,0,0,0,0,0,0,0,0,0,0,0,0,0,0,0,0,0,0,0,0,0,0,0,0,0.0103,0.0103,0,0.0099,0.0099,0.0099,0.0051,0.005,0.0049,0.0047,0.0006,0.0006,0.0006,0,0,0,0,0,0,0,0,0,0,0,0,0,0.0084,0.0084,0.0103,0.0103,0.0103,0.0099,0.0099,0.0099,0.0051,0.005,0.0048,0.0047,0.0006,0.0006,0.0006,0,0,0,0,0,0,0,0,0,0,0,0,0,0.0087,0.0084,0.0103,0.0079,0.0076,0.0099,0.0099,0.0099,0.0052,0.005,0.0048,0.0046,0.0006,0.0006,0.0006,0.0043,0,0,0.0006,0.0006,0,0,0,0,0,0,0,0,0.0087,0.0088,0.0082,0.008,0.0078,0.0073,0.0077,0.0078,0.0052,0.0061,0.0047,0.0045,0.0026,0.0024,0.0029,0.0041,0.0039,0.0006,0.0006,0.0006,0.0006,0,0,0,0,0,0,0,0.0087,0.0088,0.0102,0.0082,0.008,0.0072,0.0071,0.0077,0.0054,0.006,0.0057,0.0056,0.0024,0.0029,0.0027,0.0039,0.0006,0.0006,0.0006,0.0006,0.0071,0.0072,0,0,0,0,0,0,0.0088,0.0088,0.0102,0.0102,0.0078,0.0074,0.0072,0.0077,0.0054,0.0049,0.0058,0.0054,0.0029,0.0027,0.0025,0.007,0.0006,0.0006,0.0006,0.0069,0.0071,0.0073,0,0,0,0,0,0,0.0088,0.009,0.0102,0.0094,0.0095,0.0076,0.0082,0.0078,0.0078,0.0053,0.0047,0.0061,0.0028,0.0025,0.0041,0.0068,0.0006,0.0006,0.0067,0.007,0.0072,0.0159,0,0,0,0,0,0,0.0088,0.009,0.0097,0.0094,0.0095,0.0125,0.0084,0.0079,0.008,0.0075,0.0054,0.0048,0.0026,0.0042,0.0041,0.0067,0.0006,0.0065,0.0068,0.0071,0.0154,0.0164,0.0173,0,0,0,0,0,0.0087,0.0117,0.0098,0.0099,0.0105,0.0127,0.0128,0.0107,0.0082,0.0097,0.0083,0.0049,0.0061,0.0044,0.0043,0.0069,0.0064,0.0067,0.0071,0.0149,0.0162,0.0172,0,0,0,0,0,0,0.0119,0.0115,0.0094,0.0121,0.0122,0.0119,0.0135,0.0116,0.0118,0.011,0.0077,0.0072,0.0093,0.0076,0.0057,0.0097,0.0055,0.0059,0.0114,0.0126,0.0135,0.0117,0.0006,0,0,0,0,0,0.0128,0.0145,0.0136,0.0159,0.0161,0.0146,0.0152,0.0139,0.0137,0.0135,0.012,0.0109,0.0112,0.0113,0.0112,0.0142,0.0069,0.0157,0.0166,0.0174,0.016,0.0072,0.0071,0.0086,0.0086,0.0085,0,0,0.0148,0.0147,0.0157,0.0166,0.0165,0.019,0.0146,0.0165,0.0185,0.0133,0.0161,0.0143,0.0128,0.0156,0.0164,0.0143,0.0136,0.0179,0.0186,0.0166,0.0076,0.0074,0.0072,0.0088,0.0088,0.0087,0,0,0.0205,0.0196,0.0227,0.0233,0.0235,0.023,0.0236,0.0235,0.0232,0.0257,0.0223,0.0222,0.0231,0.0224,0.0221,0.0285,0.0188,0.0285,0.0319,0.0236,0.0233,0.0229,0.0145,0.0133,0.0291,0.0291,0.0292,0,0.0226,0.0258,0.0242,0.0273,0.0282,0.0251,0.0286,0.0294,0.0297,0.0291,0.0275,0.0266,0.0263,0.0278,0.0302,0.0305,0.0228,0.0279,0.0245,0.0239,0.0234,0.0148,0.0133,0.0296,0.0296,0.0295,0.0295,0,0.0301,0.0323,0.0348,0.0368,0.0381,0.0409,0.0407,0.0417,0.04,0.0387,0.0388,0.0375,0.0353,0.0369,0.0358,0.0335,0.0282,0.0263,0.0209,0.0237,0.0146,0.0129,0.0303,0.0301,0.03,0.0299,0,0,0.0349,0.039,0.0396,0.0405,0.0428,0.0439,0.0482,0.049,0.0479,0.0485,0.0461,0.0492,0.0441,0.0435,0.0414,0.036,0.0279,0.0297,0.029,0.02,0.0069,0.0093,0.0076,0.0233,0.0231,0.0229,0.0023,0,0.0405,0.0467,0.0479,0.053,0.0554,0.0542,0.0571,0.057,0.0549,0.052,0.0497,0.0468,0.048,0.0447,0.0405,0.0299,0.0235,0.0335,0.0065,0.0057,0.0064,0.0059,0.0221,0.001,0.0006,0.0003,0.0001,0,0.0467,0.0493,0.0554,0.0573,0.0581,0.0608,0.06,0.0621,0.0585,0.0557,0.0523,0.0472,0.0424,0.0405,0.0248,0.0298,0.0189,0.0109,0.0099,0.0073,0.005,-0.0027,-0.0031,-0.0028,-0.0026,-0.0024,-0.0022,0,0.0479,0.054,0.058,0.0593,0.062,0.0634,0.0643,0.0626,0.061,0.0555,0.0502,0.0445,0.0375,0.0258,0.0137,0.0156,-0.0075,-0.0072,-0.0151,-0.0151,-0.0154,-0.0148,-0.0215,-0.0215,-0.0214,-0.0214,-0.0213,0,0.052,0.055,0.0584,0.0601,0.0618,0.0638,0.0632,0.0628,0.0588,0.0547,0.0506,0.0439,0.0322,0.0195,0.0093,-0.0073,-0.0112,-0.0162,-0.0206,-0.0107,-0.0094,-0.0166,-0.0157,-0.0221,-0.022,-0.0218,-0.0217,0,0.0522,0.0557,0.0588,0.0618,0.0623,0.0628,0.062,0.06,0.0574,0.0508,0.0481,0.0386,0.0233,0.0119,-0.0096,-0.014,-0.0293,-0.0347,-0.0241,-0.0273,-0.0311,-0.0295,-0.0474,-0.0475,-0.0476,-0.0476,-0.0477,0,0.0529,0.0547,0.0577,0.0577,0.059,0.0596,0.0588,0.0586,0.0556,0.0477,0.0431,0.0286,0.0215,-0.0051,-0.0164,-0.0364,-0.0371,-0.0453,-0.0361,-0.0315,-0.034,-0.0323,-0.0307,-0.0478,-0.0478,-0.0479,-0.0479,0,0.0514,0.0523,0.0537,0.0536,0.0536,0.0539,0.0533,0.0511,0.0493,0.0465,0.0373,0.0261,0.0086,-0.0062,-0.0216,-0.0349,-0.0392,-0.0461,-0.046,-0.0375,-0.0322,-0.0342,-0.0325,-0.0481,-0.0481,-0.0481,-0.0481,0,0.0478,0.0474,0.0478,0.0469,0.0477,0.0474,0.0488,0.0459,0.0437,0.0383,0.0345,0.0203,0.0122,-0.0062,-0.0203,-0.0322,-0.0344,-0.0357,-0.0361,-0.036,-0.0232,-0.0142,-0.0302,0,0,0,0,0,0.0426,0.0404,0.0403,0.0397,0.0412,0.0418,0.0434,0.045,0.0439,0.0379,0.0373,0.023,0.0039,-0.0049,-0.017,-0.0233,-0.0379,-0.0377,-0.0399,-0.0496,-0.0493,-0.0356,0,0,0,0,0,0,0.0383,0.0375,0.0375,0.0334,0.0327,0.0339,0.036,0.0372,0.0349,0.0337,0.0238,0.0204,0.0012,0.0098,-0.0177,-0.0215,-0.024,-0.0466,-0.0468,-0.0498,-0.0495,-0.0493,-0.0351,0,0,0,0,0]}]]